Showing default

HJS-6C, 63430

Orbit data source: Space-Track

HJS-6C, 63430 is a payload satellite owned by Zhongguo Xingwang (CN) in LEO that was launched on Tue, 01 Apr 2025 UTC via a CHANG ZHENG 2D launch vehicle from the Jiuquan Satellite Launch Center, China (JSC). Payload-class satellites include a variety of spacecraft equipped with specific instruments for various scientific and technological missions. These include communications satellites like Starlink; space stations such as the ISS; scientific satellites like the Hubble; Earth observation satellites from companies like Planet Labs, Umbra, and HawkEye 360; GPS; miniature CubeSats for education and research; and military/defense satellites.

Loading next visibility...
Identifier
63430, 2025-067C
Orbit
LEO
Country
Flag of CNCN / PRC
Related business
Manufacturer
Changguang WJ
Mission
Operational Civil Communications
Bus & Motor
Unknown
Mass
~300 kg wet, ~300 kg dry
Launch date (UTC)
2025-04-01 (7 months ago)
Launch vehicle
CHANG ZHENG 2D
Launch site
Jiuquan Satellite Launch Center, China (JSC)
Object type
Payload
Rocket body
Debris
Shape & HBR
Box + 2 Pan, 1.1 m
Radar Cross Section
2.320 m², Large (>1 m²)

Expand to show TLE details & history
Last TLE update: 6 hours ago

TLE from 6 hours ago
0 HJS-6C
1 63430U 25067C   25309.28451991  .00012305  00000-0  33666-3 0  9992
2 63430  54.9936 308.8811 0011653 110.5426 249.6853 15.37741342 33569
Epoch: 2025-11-05T06:49Z
TLE epoch observation values (Epoch: 2025-11-05T06:49:42.520Z)
Latitude
-0.00002°
Longitude
161.69452°
Altitude
456.66 km
Speed
7.638 km/s
True Right ascension
20h 35m 31s
True Declination
0° 00' 00"
Sunlit
Object was in daylight at epoch
Visualization orbit readout
Latitude
Unknown
Longitude
Unknown
Altitude
Unknown
Speed
Unknown
Apparent Right ascension
Unknown
Apparent Declination
Unknown
Sunlit
N/A
Visualization observer readout
Local Sidereal Time
09:12:31
Azimuth
Unknown
Elevation
Unknown
Doppler factor
Unknown
Orbital elements
Apogee altitude
460.713 km
Perigee altitude
444.793 km
Semi-major axis
6,830.89 km
Eccentricity
0.00117
Inclination
54.9936°
RAAN
308.8811°
Arg. of periapsis
110.5426°
True anomaly
249.56014°
Mean anomaly
249.6853°
Eccentric anomaly
249.62271°
Mean motion
3.84439 °/min
Orbital period
93.64 mins
BSTAR
0.00033666
Loading maneuver chart data...
Computing Atmospheric mass density...
Loading historical data...
Loading historical data...
Loading historical data...
Loading historical data...
Loading historical data...
Loading historical data...
Loading historical data...
Other satellites on launch #67 in the year 2025 (2025-04-01 UTC)

Documentation

Showing up to 5 results
|